THORAD AGENA D DEB

Satellite information

Favourite Embed

Satellite Type and Status

DEBRISIN ORBIT

Key statistics

Satellite THORAD AGENA D DEB at a glance.

Uptime

20181

Days in orbit

Revolutions

≈ 13.4

Per day

Orbit

PO

None

Inclination

99.9

Latest

Satellite identification and parameters

Extended collection of information and parameters for THORAD AGENA D DEB.

Object identification

Identified? True

Debris? True

Object name: THORAD AGENA D DEB

International designator: 1970-025KT

Object number (NORAD): 5388

Object ID (CCSDS): 5388

Country: UNITED STATES OF AMERICA (US)

Current information (Y/N): Y

Notes: NO ELEMENTS AVAILABLE

Orbital parameters

Period: 107.638 minutes

Inclination: 99.905 deg

SMA: 7495.574 km

Apoapsis: 1217.795 km

Periapsis: 1017.083 km

RAAN: 132.985 deg

Eccentricy: 0.0133887

Argument of periapsis: 274.0624 deg

Mean anomaly: 142.8296 deg

Mean motion: 13.37812971 rev/day

Mean motion (dot): 0.00000265 rev/day2

B* drag term: 0.00055892 1/REarth

Two-line elements (TLE)

Creation date: July 9, 2025, 2:22 a.m.

Reference frame: TEME

Reference center: EARTH

Epoch: July 8, 2025, 7:24 p.m. UTC

TLE line 0: 0 THORAD AGENA D DEB

TLE line 1: 1 05388U 70025KT 25189.80857383 .00000265 00000-0 55892-3 0 9990

TLE line 2: 2 05388 99.9050 132.9850 0133887 274.0624 142.8296 13.37812971679928

Live tracking on map

Real-time ground track for satellite THORAD AGENA D DEB.

In-orbit conjunctions

A list of the most updated potential collisions computed for object THORAD AGENA D DEB.

Target Orbit TCA Probability of collision Miss distance Type
COSMOS 2251 DEB LEO 2025-03-01 12:48:57 0.0002220288 129.0 (m) DEBRIS

Associated space launch

Meteorological research and development satellite

THORAD AGENA D DEB was lifted into orbit during the mission ‘Thorad SLV-2G Agena D | Nimbus 4’, on board a Thorad SLV-2G Agena D space rocket.

The launch took place on April 8, 1970, 8:17 a.m. from Space Launch Complex 2E.

For more information about the launch, click the button.

Launch to space Thorad SLV-2G Agena D | Nimbus 4
Thorad SLV-2G Agena D | Nimbus 4

Agency: N/A

Status: Launch Successful

Launch date: April 8, 1970, 8:17 a.m. UTC

Rocket: Thorad SLV-2G Agena D

Launch pad: Space Launch Complex 2E

Location: Vandenberg SFB, CA, USA

...

Latest news about this satellite

There are no fresh news available about this satellite. Check back as we update our databases every day.


Newsletter sign-up

Weekly statistics, charts and insights to help you stay on top of the space industry.